TimeEDT,TemperatureF,Dew PointF,Humidity,Sea Level PressureIn,VisibilityMPH,Wind Direction,Wind SpeedMPH,Gust SpeedMPH,PrecipitationIn,Events,Conditions,WindDirDegrees,DateUTC
12:51 AM,57.0,53.1,87,30.08,10.0,NNE,3.5,-,N/A,,Scattered Clouds,20,2013-09-30 04:51:00
1:51 AM,55.9,52.0,87,30.09,10.0,NE,3.5,-,N/A,,Scattered Clouds,50,2013-09-30 05:51:00
2:51 AM,54.0,52.0,93,30.09,10.0,NNE,5.8,-,N/A,,Scattered Clouds,30,2013-09-30 06:51:00
3:51 AM,54.0,51.1,90,30.07,10.0,NNE,4.6,-,N/A,,Scattered Clouds,30,2013-09-30 07:51:00
4:51 AM,54.0,51.1,90,30.07,10.0,North,4.6,-,N/A,,Scattered Clouds,350,2013-09-30 08:51:00
5:51 AM,55.0,52.0,89,30.07,10.0,North,3.5,-,N/A,,Scattered Clouds,360,2013-09-30 09:51:00
6:51 AM,53.1,51.1,93,30.09,10.0,NNE,4.6,-,N/A,,Scattered Clouds,30,2013-09-30 10:51:00
7:51 AM,55.9,54.0,93,30.09,10.0,NNE,5.8,-,N/A,,Scattered Clouds,20,2013-09-30 11:51:00
8:51 AM,59.0,54.0,83,30.09,10.0,North,6.9,-,N/A,,Scattered Clouds,10,2013-09-30 12:51:00
9:51 AM,64.0,52.0,65,30.08,10.0,Variable,3.5,-,N/A,,Scattered Clouds,0,2013-09-30 13:51:00
10:51 AM,66.9,50.0,54,30.07,10.0,NE,3.5,-,N/A,,Scattered Clouds,50,2013-09-30 14:51:00
11:51 AM,71.1,48.9,45,30.05,10.0,NNW,3.5,-,N/A,,Scattered Clouds,330,2013-09-30 15:51:00
12:51 PM,73.0,48.9,42,30.03,10.0,Variable,3.5,-,N/A,,Scattered Clouds,0,2013-09-30 16:51:00
1:51 PM,72.0,48.9,44,30.01,10.0,Variable,3.5,-,N/A,,Mostly Cloudy,0,2013-09-30 17:51:00
2:51 PM,72.0,46.9,41,30.00,10.0,East,5.8,-,N/A,,Scattered Clouds,90,2013-09-30 18:51:00
3:51 PM,72.0,51.1,48,29.99,10.0,SSE,8.1,-,N/A,,Scattered Clouds,150,2013-09-30 19:51:00
4:51 PM,72.0,52.0,49,29.98,10.0,SE,6.9,-,N/A,,Scattered Clouds,140,2013-09-30 20:51:00
5:51 PM,70.0,53.1,55,29.98,10.0,South,5.8,-,N/A,,Scattered Clouds,170,2013-09-30 21:51:00
6:51 PM,68.0,53.1,59,29.99,10.0,SSE,5.8,-,N/A,,Scattered Clouds,150,2013-09-30 22:51:00
7:51 PM,66.0,54.0,65,29.99,10.0,SSE,4.6,-,N/A,,Scattered Clouds,160,2013-09-30 23:51:00
8:51 PM,64.9,55.0,70,30.01,10.0,South,3.5,-,N/A,,Scattered Clouds,170,2013-10-01 00:51:00
9:51 PM,63.0,55.0,75,30.01,10.0,South,3.5,-,N/A,,Scattered Clouds,190,2013-10-01 01:51:00
10:51 PM,62.1,54.0,75,30.01,10.0,SW,9.2,-,N/A,,Scattered Clouds,230,2013-10-01 02:51:00
11:51 PM,60.1,53.1,78,30.00,10.0,WSW,5.8,-,N/A,,Partly Cloudy,240,2013-10-01 03:51:00